Regional Weather Roundup
Issued by NWS Columbia, SC

Home | Current Version | Previous Version | Text Only | Print | Product List | Glossary On
Versions: 1 2 3 4 5 6 7 8 9 10 11 12 13 14 15 16 17 18 19 20 21 22 23 24 25 26 27
000
ASUS42 KCAE 231710
RWRCAE
REGIONAL WEATHER ROUNDUP
NATIONAL WEATHER SERVICE COLUMBIA SC
1200 PM EST TUE JAN 23 2018

NOTE: "FAIR" INDICATES FEW OR NO CLOUDS BELOW 12,000 FEET WITH NO
SIGNIFICANT WEATHER AND/OR OBSTRUCTIONS TO VISIBILITY.

NOT ALL STATIONS ARE QUALITY CONTROLLED BY THE NATIONAL
WEATHER SERVICE. USE DATA WITH CAUTION...ESPECIALLY
DEWPOINT OBSERVATIONS.

SCZ001>056-GAZ040-063>065-077-231800-
...UPSTATE SOUTH CAROLINA...

CITY           SKY/WX    TMP DP  RH WIND       PRES   REMARKS
ANDERSON       FAIR      53  30  41 W22G32    29.92F
LIBERTY        FAIR      55  33  43 SW14G23   29.88F
SPARTANBURG    FAIR      55  30  38 W15G22    29.86F
CLEMSON        FAIR      53  33  46 SW10      29.91F
GREENVILLE     FAIR      57  31  37 SW21G29   29.88S
GREENWOOD      FAIR      54  30  40 W18G28    29.94F
GREER          FAIR      57  32  38 W17G25    29.87S
ROCK HILL      FAIR      61  30  31 SW16G33   29.84F
CHESTER        FAIR      61  27  27 SW13G22   29.87F
LAURENS        FAIR      55  32  41 SW12G25   29.90S


...CENTRAL SOUTH CAROLINA...

CITY           SKY/WX    TMP DP  RH WIND       PRES   REMARKS
COLUMBIA APT   FAIR      69  48  47 W23G32    29.89F
COLUMBIA OWENS FAIR      68  45  43 W20G28    29.90F
MCENTIRE ANGB  MOSUNNY   69  47  46 SW20      29.88F
ORANGEBURG     FAIR      69  54  58 W23G31    29.90S
SUMTER SHAW    FAIR      70  55  59 W18G32    29.85F
NEWBERRY       FAIR      59  34  38 W23G30    29.94S
AIKEN          FAIR      63  41  45 W20G26    29.95F
BARNWELL         N/A     68  52  56 W15G22    29.93F
MANNING        FAIR      72  52  49 MISG      29.89F
CAMDEN         FAIR      68  50  52 W25       29.87F
LANCASTER      FAIR      63  39  42 SW23G33   29.87F
WINNSBORO      FAIR      63  46  55 W14G26    29.88F


...EASTERN AND COASTAL SOUTH CAROLINA...

CITY           SKY/WX    TMP DP  RH WIND       PRES   REMARKS
MYRTLE BEACH   CLOUDY    70  63  78 SW12G22   29.89F
N MYRTLE BCH   PTSUNNY   58  56  93 SW17      29.88F
CONWAY         CLOUDY    68  63  83 SW14G21   29.88F
MARION         CLOUDY    70  61  73 SW10G21   29.86F
HARTSVILLE     FAIR      68  54  60 W12G23    29.85F
FLORENCE       PTSUNNY   73  59  61 SW22G32   29.84F
DARLINGTON     CLOUDY    69  60  73 W21       29.85R
CHARLESTON APT PTSUNNY   72  64  76 SW13      29.91F
MOUNT PLEASANT PTSUNNY   66  64  94 SW9G16    29.92F
WALTERBORO     FAIR      70  61  73 SW16G25   29.92F
BEAUFORT       PTSUNNY   74  64  71 W18G28    29.92


...EASTERN GEORGIA...

CITY           SKY/WX    TMP DP  RH WIND       PRES   REMARKS
AUGUSTA BUSH F FAIR      66  36  32 W16G24    29.94F
AUGUSTA DANIEL FAIR      64  33  31 MISG      29.95F
THOMSON        FAIR      59  30  32 NW14G22   30.01F
CLAXTON        FAIR      71  56  58 W10G18    29.98S
SYLVANIA       FAIR      67  50  54 NW14G20   29.97S
STATESBORO     FAIR      68  44  43 W18       29.97S
SAVANNAH       PTSUNNY   75  60  59 W21G31    29.94F


...SOUTHERN NORTH CAROLINA...

CITY           SKY/WX    TMP DP  RH WIND       PRES   REMARKS
CHARLOTTE      FAIR      63  28  26 SW23G31   29.83F
MONROE         FAIR      62  42  47 W22G28    29.83F
WADESBORO      FAIR      68  49  51 SW13G24   29.83F
ROCKINGHAM     FAIR      67  56  67 W17G29    29.83S
RUTHERFORDTON  FAIR      60  34  38 S10G18    29.82F
ASHEVILLE      FAIR      54  29  38 N17G24    29.84F

$$




USA.gov is the U.S. government's official web portal to all federal, state and local government web resources and services.